TimeEDT,TemperatureF,Dew PointF,Humidity,Sea Level PressureIn,VisibilityMPH,Wind Direction,Wind SpeedMPH,Gust SpeedMPH,PrecipitationIn,Events,Conditions,WindDirDegrees,DateUTC
12:51 AM,48.9,21.0,33,30.04,10.0,NW,4.6,-,N/A,,Clear,310,2014-04-25 04:51:00
1:51 AM,46.9,21.9,37,30.03,10.0,North,3.5,-,N/A,,Clear,360,2014-04-25 05:51:00
2:51 AM,43.0,27.0,53,30.02,10.0,NNE,6.9,-,N/A,,Clear,20,2014-04-25 06:51:00
3:51 AM,45.0,23.0,42,30.03,10.0,NNE,3.5,-,N/A,,Clear,20,2014-04-25 07:51:00
4:51 AM,42.1,26.1,53,30.04,10.0,North,3.5,-,N/A,,Clear,360,2014-04-25 08:51:00
5:51 AM,42.1,23.0,47,30.04,10.0,Calm,Calm,-,N/A,,Clear,0,2014-04-25 09:51:00
6:51 AM,39.9,28.9,65,30.05,10.0,Calm,Calm,-,N/A,,Clear,0,2014-04-25 10:51:00
7:51 AM,48.0,32.0,54,30.06,10.0,ESE,4.6,-,N/A,,Clear,110,2014-04-25 11:51:00
8:51 AM,50.0,21.9,33,30.04,10.0,ESE,9.2,-,N/A,,Partly Cloudy,110,2014-04-25 12:51:00
9:51 AM,54.0,24.1,31,30.04,10.0,ESE,10.4,-,N/A,,Clear,120,2014-04-25 13:51:00
10:51 AM,55.4,26.6,33,30.02,10.0,South,15.0,-,N/A,,Clear,170,2014-04-25 14:51:00
11:51 AM,59.0,30.9,35,30.01,10.0,SSE,16.1,-,N/A,,Partly Cloudy,160,2014-04-25 15:51:00
12:51 PM,60.1,32.0,35,29.97,10.0,South,18.4,-,N/A,,Clear,180,2014-04-25 16:51:00
1:51 PM,60.1,30.9,33,29.93,10.0,SSE,18.4,-,N/A,,Clear,160,2014-04-25 17:51:00
2:51 PM,62.1,30.9,31,29.89,10.0,South,17.3,-,N/A,,Clear,170,2014-04-25 18:51:00
3:51 PM,62.1,30.9,31,29.86,10.0,SSE,23.0,-,N/A,,Clear,160,2014-04-25 19:51:00
4:51 PM,61.0,28.0,29,29.82,10.0,SSE,19.6,-,N/A,,Overcast,150,2014-04-25 20:51:00
5:51 PM,57.9,28.0,32,29.82,10.0,SSE,17.3,-,N/A,,Overcast,150,2014-04-25 21:51:00
6:51 PM,51.1,39.9,66,29.90,2.0,SSW,9.2,-,0.12,Rain,Heavy Rain,210,2014-04-25 22:51:00
6:58 PM,50.0,41.0,71,29.89,1.5,SSW,5.8,-,0.06,Rain,Heavy Rain,200,2014-04-25 22:58:00
7:06 PM,48.9,42.1,77,29.88,3.0,SSE,4.6,-,0.08,Rain,Rain,160,2014-04-25 23:06:00
7:51 PM,48.9,43.0,80,29.83,5.0,East,11.5,-,0.15,Rain,Rain,100,2014-04-25 23:51:00
8:51 PM,48.9,43.0,80,29.78,10.0,ESE,12.7,-,0.05,Rain,Light Rain,110,2014-04-26 00:51:00
9:19 PM,48.9,41.0,74,29.78,10.0,East,10.4,-,0.00,,Overcast,80,2014-04-26 01:19:00
9:51 PM,50.0,41.0,71,29.78,10.0,East,9.2,-,0.00,,Overcast,80,2014-04-26 01:51:00
10:51 PM,48.2,42.8,82,29.75,6.0,East,8.1,-,N/A,Rain,Rain,90,2014-04-26 02:51:00
11:51 PM,48.0,46.0,93,29.73,9.0,NE,6.9,-,0.08,,Overcast,40,2014-04-26 03:51:00